Location: Ash Swamp
(41.5170°N, 74.6157°W)
Time: 02:27:05
(UTC+00:00)

COSMOS 2406 - Pass Details

Date: 14 July 2020
Orbit: 844 x 862 km, 71.0° (Epoch: 14 August)

Event Time Altitude Azimuth Distance (km) Brightness Sun altitude
Exits shadow 05:55:46 41° 123° (ESE) 1,231 3.8 -25.8°
Maximum altitude 05:56:24 42° 106° (ESE) 1,205 3.9 -25.7°
Drops below altitude 10° 06:01:47 10° 37° (NE) 2,507 6.5 -25.5°
Sets 06:04:21 0° 31° (NNE) 3,447 7.6 -25.4°
